Location: Aulnoy
(48.8410°N, 3.0967°E)
Time: 00:04:58
(UTC+00:00)

Envisat - Pass Details

Date: 04 March 2024
Orbit: 762 x 764 km, 98.3° (Epoch: 12 April)

Event Time Altitude Azimuth Distance (km) Brightness Sun altitude
Rises 01:48:53 0° 30° (NNE) 3,240 7.1 -41.6°
Reaches altitude 10° 01:52:21 10° 55° (NE) 2,307 6.1 -41.2°
Enters shadow 01:53:47 13° 71° (ENE) 2,087 5.7 -41.1°
